Sacramento / Mc Clellan, CA

6:16 AM PDT on July 25, 2017 (GMT -0700)
McClellan

Weather History for KMCC - June, 2013

Change the Weather History Date:

Thursday, June 13, 2013

  Actual Average (KMHR) Record (KMHR)
Temperature  
Mean Temperature 70 °F -  
Max Temperature 84 °F 85 °F 100 °F (2007)
Min Temperature 55 °F 54 °F 48 °F (2017)
Cooling Degree Days 4    
Growing Degree Days 20 (Base 50)    
Moisture  
Dew Point 40 °F    
Average Humidity 39    
Maximum Humidity 67    
Minimum Humidity 11    
Precipitation  
Precipitation 0.00 in - - ()
Sea Level Pressure  
Sea Level Pressure 30.01 in    
Wind  
Wind Speed 7 mph (North)    
Max Wind Speed 13 mph    
Max Gust Speed 21 mph    
Visibility 10 miles    
Events      
Averages and records for this station are not official NWS values.
T = Trace of Precipitation, MM = Missing Value Source: NWS Daily Summary

Daily Weather History Graph

Daily Weather History Graph

Search for Another Location

Airport or City:

Trip Planner

Search our weather history database for the weather conditions in past years. The results will help you decide how hot, cold, wet, or windy it might be!

Date:

Astronomy

Jun. 13, 2013 Rise Set
Actual Time 5:40 AM PDT 8:31 PM PDT
Civil Twilight 5:08 AM PDT 9:03 PM PDT
Nautical Twilight 4:28 AM PDT 9:43 PM PDT
Astronomical Twilight 3:42 AM PDT 10:29 PM PDT
Moon 10:19 AM PDT (6/13) 11:43 PM PDT (6/13)
Length of Visible Light 15h 54m
Length of Day
14h 50m
Waxing Crescent, 22% of the Moon is Illuminated
Jun 13
Waxing Crescent
Jun 16
First Quarter
Jun 23
Full
Jun 29
Last Quarter
Jul 8
New

Hourly Weather History & Observations

Time (PDT) Temp. Dew Point Humidity Pressure Visibility Wind Dir Wind Speed Gust Speed Precip Events Conditions
12:15 AM 62.6 °F 44.6 °F 52% 29.94 in 10.0 mi SSE 8.1 mph - N/A   Clear
12:35 AM 62.6 °F 44.6 °F 52% 29.95 in 10.0 mi SSE 9.2 mph - N/A   Clear
12:55 AM 60.8 °F 44.6 °F 55% 29.95 in 10.0 mi SSE 8.1 mph - N/A   Clear
1:15 AM 60.8 °F 44.6 °F 55% 29.95 in 10.0 mi SSE 9.2 mph - N/A   Clear
1:35 AM 59.0 °F 44.6 °F 59% 29.95 in 10.0 mi SSE 9.2 mph - N/A   Clear
1:55 AM 59.0 °F 44.6 °F 59% 29.95 in 10.0 mi SSE 10.4 mph - N/A   Clear
2:15 AM 59.0 °F 44.6 °F 59% 29.96 in 10.0 mi SSE 8.1 mph - N/A   Clear
2:35 AM 57.2 °F 44.6 °F 63% 29.96 in 10.0 mi SSE 8.1 mph - N/A   Clear
2:55 AM 57.2 °F 44.6 °F 63% 29.96 in 10.0 mi SSE 8.1 mph - N/A   Clear
3:15 AM 57.2 °F 44.6 °F 63% 29.97 in 10.0 mi SSE 6.9 mph - N/A   Clear
3:35 AM 57.2 °F 44.6 °F 63% 29.97 in 10.0 mi SE 6.9 mph - N/A   Clear
3:55 AM 57.2 °F 44.6 °F 63% 29.97 in 10.0 mi SE 6.9 mph - N/A   Clear
4:15 AM 57.2 °F 44.6 °F 63% 29.98 in 10.0 mi ESE 5.8 mph - N/A   Clear
4:35 AM 55.4 °F 44.6 °F 67% 29.98 in 10.0 mi SE 4.6 mph - N/A   Clear
4:55 AM 57.2 °F 44.6 °F 63% 29.99 in 10.0 mi ESE 5.8 mph - N/A   Clear
5:15 AM 55.4 °F 44.6 °F 67% 30.00 in 10.0 mi ESE 5.8 mph - N/A   Clear
5:35 AM 55.4 °F 42.8 °F 63% 30.00 in 10.0 mi ESE 6.9 mph - N/A   Clear
5:55 AM 55.4 °F 44.6 °F 67% 30.01 in 9.0 mi ESE 6.9 mph - N/A   Clear
6:15 AM 55.4 °F 44.6 °F 67% 30.02 in 8.0 mi ESE 4.6 mph - N/A   Clear
6:35 AM 57.2 °F 44.6 °F 63% 30.02 in 8.0 mi ESE 5.8 mph - N/A   Clear
6:55 AM 57.2 °F 44.6 °F 63% 30.03 in 9.0 mi SE 5.8 mph - N/A   Clear
7:15 AM 59.0 °F 44.6 °F 59% 30.03 in 9.0 mi SE 5.8 mph - N/A   Clear
7:35 AM 59.0 °F 44.6 °F 59% 30.04 in 9.0 mi SE 4.6 mph - N/A   Clear
7:55 AM 60.8 °F 44.6 °F 55% 30.04 in 9.0 mi East 3.5 mph - N/A   Clear
8:15 AM 62.6 °F 44.6 °F 52% 30.05 in 9.0 mi SE 3.5 mph - N/A   Clear
8:35 AM 62.6 °F 44.6 °F 52% 30.05 in 10.0 mi Calm Calm - N/A   Clear
8:55 AM 64.4 °F 44.6 °F 49% 30.06 in 9.0 mi East 4.6 mph - N/A   Clear
9:15 AM 66.2 °F 44.6 °F 46% 30.06 in 10.0 mi Calm Calm - N/A   Clear
9:35 AM 66.2 °F 44.6 °F 46% 30.07 in 9.0 mi Calm Calm - N/A   Clear
9:55 AM 66.2 °F 42.8 °F 43% 30.06 in 9.0 mi Calm Calm - N/A   Clear
10:15 AM 68.0 °F 42.8 °F 40% 30.07 in 10.0 mi ENE 3.5 mph - N/A   Clear
10:35 AM 71.6 °F 41.0 °F 33% 30.07 in 9.0 mi Calm Calm - N/A   Clear
10:55 AM 73.4 °F 42.8 °F 33% 30.07 in 10.0 mi South 3.5 mph - N/A   Clear
11:15 AM 73.4 °F 42.8 °F 33% 30.07 in 10.0 mi Calm Calm - N/A   Clear
11:35 AM 73.4 °F 42.8 °F 33% 30.07 in 9.0 mi NE 3.5 mph - N/A   Clear
11:55 AM 75.2 °F 44.6 °F 34% 30.07 in 9.0 mi NW 5.8 mph - N/A   Clear
12:15 PM 77.0 °F 44.6 °F 32% 30.06 in 9.0 mi West 4.6 mph - N/A   Clear
12:35 PM 77.0 °F 42.8 °F 29% 30.06 in 10.0 mi NW 6.9 mph - N/A   Clear
12:55 PM 77.0 °F 41.0 °F 28% 30.06 in 10.0 mi West 10.4 mph - N/A   Clear
1:15 PM 77.0 °F 39.2 °F 26% 30.05 in 10.0 mi NW 8.1 mph - N/A   Clear
1:35 PM 78.8 °F 42.8 °F 28% 30.05 in 10.0 mi NW 9.2 mph - N/A   Clear
1:55 PM 80.6 °F 41.0 °F 24% 30.05 in 10.0 mi NW 12.7 mph 18.4 mph N/A   Clear
2:15 PM 80.6 °F 41.0 °F 24% 30.05 in 9.0 mi NW 11.5 mph 20.7 mph N/A   Clear
2:35 PM 82.4 °F 39.2 °F 21% 30.05 in 10.0 mi WNW 11.5 mph 17.3 mph N/A   Clear
2:55 PM 82.4 °F 35.6 °F 19% 30.04 in 9.0 mi NW 8.1 mph - N/A   Clear
3:15 PM 82.4 °F 30.2 °F 15% 30.03 in 10.0 mi WNW 6.9 mph - N/A   Clear
3:35 PM 82.4 °F 33.8 °F 17% 30.03 in 10.0 mi North 8.1 mph - N/A   Clear
3:55 PM 84.2 °F 32.0 °F 15% 30.02 in 10.0 mi NNW 8.1 mph - N/A   Clear
4:15 PM 84.2 °F 32.0 °F 15% 30.01 in 10.0 mi NW 5.8 mph 16.1 mph N/A   Clear
4:35 PM 84.2 °F 32.0 °F 15% 30.01 in 10.0 mi NNW 12.7 mph 18.4 mph N/A   Clear
4:55 PM 84.2 °F 26.6 °F 12% 30.00 in 9.0 mi NNW 6.9 mph 16.1 mph N/A   Clear
5:15 PM 84.2 °F 28.4 °F 13% 30.00 in 10.0 mi NW 6.9 mph - N/A   Clear
5:35 PM 84.2 °F 28.4 °F 13% 29.99 in 10.0 mi North 6.9 mph - N/A   Clear
5:55 PM 84.2 °F 30.2 °F 14% 29.99 in 10.0 mi NNW 5.8 mph - N/A   Clear
6:15 PM 84.2 °F 32.0 °F 15% 29.99 in 10.0 mi North 6.9 mph - N/A   Clear
6:35 PM 84.2 °F 30.2 °F 14% 29.98 in 10.0 mi North 9.2 mph - N/A   Clear
6:55 PM 84.2 °F 26.6 °F 12% 29.98 in 10.0 mi NNW 9.2 mph - N/A   Clear
7:15 PM 84.2 °F 24.8 °F 11% 29.98 in 10.0 mi NNW 5.8 mph - N/A   Clear
7:35 PM 82.4 °F 30.2 °F 15% 29.98 in 10.0 mi North 8.1 mph - N/A   Clear
7:55 PM 82.4 °F 32.0 °F 16% 29.98 in 10.0 mi NNW 5.8 mph - N/A   Clear
8:15 PM 80.6 °F 33.8 °F 18% 29.98 in 10.0 mi NNW 4.6 mph - N/A   Clear
8:35 PM 77.0 °F 35.6 °F 22% 29.98 in 10.0 mi North 5.8 mph - N/A   Clear
8:55 PM 77.0 °F 35.6 °F 22% 29.98 in 10.0 mi NW 4.6 mph - N/A   Unknown
9:15 PM 75.2 °F 33.8 °F 22% 29.98 in 10.0 mi NNW 4.6 mph - N/A   Unknown
9:35 PM 73.4 °F 37.4 °F 27% 29.98 in 10.0 mi Calm Calm - N/A   Unknown
9:55 PM 73.4 °F 35.6 °F 25% 29.98 in 10.0 mi WNW 3.5 mph - N/A   Clear
10:15 PM 71.6 °F 35.6 °F 27% 29.98 in 10.0 mi WSW 6.9 mph - N/A   Clear
10:35 PM 71.6 °F 41.0 °F 33% 29.98 in 10.0 mi SW 6.9 mph - N/A   Clear
10:55 PM 71.6 °F 46.4 °F 41% 29.98 in 10.0 mi SW 6.9 mph - N/A   Clear
11:15 PM 68.0 °F 46.4 °F 46% 29.98 in 10.0 mi Calm Calm - N/A   Clear
11:35 PM 66.2 °F 42.8 °F 43% 29.97 in 10.0 mi NW 3.5 mph - N/A   Clear
11:55 PM 62.6 °F 42.8 °F 48% 29.97 in 10.0 mi NW 4.6 mph - N/A   Clear